Location: Clarion
(42.7316°N, 93.7330°W)
Time: 09:46:19
(UTC+00:00)

SL-19 R/B - Pass Details

Date: 22 April 2026
Orbit: 874 x 1208 km, 100.5° (Epoch: 17 May)

Event Time Altitude Azimuth Distance (km) Brightness Sun altitude
Rises 09:35:36 0° 13° (NNE) 3,499 8.2 -18.2°
Reaches altitude 10° 09:37:57 10° 11° (NNE) 2,576 7.4 -17.8°
Maximum altitude 09:43:36 70° 290° (WNW) 988 4.4 -17.0°
Enters shadow 09:47:40 21° 211° (SSW) 1,993 5.6 -16.4°
